(200617) = 2001 ST50

Discovered at Socorro on 2001-09-16 by LINEAR.

Orbit

Orbit type: Main Belt

Note: WebGL enabled browser required.

epoch2024-03-31.0
epoch JD2460400.5
perihelion date2022-01-09.42305
perihelion JD2459588.92305
argument of perihelion (°)222.56535
ascending node (°)80.33738
inclination (°)5.48510
eccentricity0.1585564
perihelion distance (AU)1.9280565
Tisserand w.r.t. Jupiter3.6
ΔV w.r.t. Earth (km/sec)8.8
semimajor axis (AU)2.2913674
mean anomaly (°)230.61707
mean daily motion (°/day)0.28415920
aphelion distance (AU)2.655
period (years)3.47
P-vector [x]0.54016108
P-vector [y]-0.74411601
P-vector [z]-0.39308698
Q-vector [x]0.83626943
Q-vector [y]0.52691250
Q-vector [z]0.15171241
absolute magnitude16.58
phase slope0.15
uncertainty0
referenceMPEC 2024-F28
observations used747
oppositions14
arc length (days)8219
first opposition used2001
last opposition used2024
residual rms (arc-secs)0.71
perturbers coarse indicatorM-v
perturbers precise indicator003Ek
first observation date used2001-09-16.0
last observation date used2024-03-18.0
computer nameMPCLINUX
JD of orbit computation2456937.290300
perihelion JD uncertainty (days)5.9684E-05
argument of perihelion uncertainty (°)5.5662E-05
ascending node uncertainty (°)5.2402E-05
inclination uncertainty (°)3.6587E-06
eccentricity uncertainty 3.9459E-08
perihelion distance uncertainty (AU)9.7559E-08
Minimum Orbit Intersection Distances (in AU)
for orbit epoch: 2460400.5, reference: E2024-GB3
Mercury1.4844
Venus1.20019
Earth0.91657
Mars0.51222
Jupiter2.54882
Saturn6.4301
Uranus15.8661
Neptune27.41

Observations

778 total observations over interval: 2001 09 16.40176 – 2024 03 18.146800
These data are available for download (format description).

Date (UT) J2000 RA J2000 Dec Magn Location Ref
2001 09 16.40176 01 53 28.84 +02 03 30.4 19.2   704 – Lincoln Laboratory ETS, New Mexico MPS 36551
2001 09 16.42402 01 53 28.01 +02 03 25.4 19.0   704 – Lincoln Laboratory ETS, New Mexico MPS 36551
2001 09 16.46021 01 53 26.82 +02 03 15.6 19.5   704 – Lincoln Laboratory ETS, New Mexico MPS 36551
2001 09 16.47779 01 53 26.19 +02 03 10.8 19.5   704 – Lincoln Laboratory ETS, New Mexico MPS 36551
2001 09 17.32980 01 52 58.68 +01 59 28.4 18.7 R 699 – Lowell Observatory-LONEOS MPS 38144
2001 09 17.35728 01 52 57.67 +01 59 22.8   699 – Lowell Observatory-LONEOS MPS 38144
2001 09 17.38482 01 52 56.70 +01 59 14.6   699 – Lowell Observatory-LONEOS MPS 38144
2001 09 17.41241 01 52 55.69 +01 59 08.0   699 – Lowell Observatory-LONEOS MPS 38144
2001 09 19.33520 01 51 47.47 +01 50 35.5 19.4   704 – Lincoln Laboratory ETS, New Mexico MPS 36551
2001 09 19.34964 01 51 46.82 +01 50 32.1 19.5   704 – Lincoln Laboratory ETS, New Mexico MPS 36551
2001 09 19.36376 01 51 46.37 +01 50 28.9 19.1   704 – Lincoln Laboratory ETS, New Mexico MPS 36551
2001 09 19.37796 01 51 45.75 +01 50 25.1 19.2   704 – Lincoln Laboratory ETS, New Mexico MPS 36551
2001 09 19.39235 01 51 45.17 +01 50 21.2 19.7   704 – Lincoln Laboratory ETS, New Mexico MPS 36551
2001 09 21.34091 01 50 28.92 +01 41 25.0 18.7   704 – Lincoln Laboratory ETS, New Mexico MPS 36551
2001 09 21.35497 01 50 28.36 +01 41 22.0 18.9   704 – Lincoln Laboratory ETS, New Mexico MPS 36551
2001 09 21.36947 01 50 27.72 +01 41 17.4 18.9   704 – Lincoln Laboratory ETS, New Mexico MPS 36551
2001 10 13.26145 01 30 38.20 +00 00 25.4 19.6   704 – Lincoln Laboratory ETS, New Mexico MPS 38144
2001 10 13.29408 01 30 36.15 +00 00 16.6 19.1   704 – Lincoln Laboratory ETS, New Mexico MPS 38144
2001 10 13.30955 01 30 35.13 +00 00 13.8 19.3   704 – Lincoln Laboratory ETS, New Mexico MPS 38144
2001 10 14.378940 01 29 28.887 -00 03 56.49 19.07 V 645 – Apache Point-Sloan Digital Sky Survey MPS 79913
2001 10 14.382412 01 29 28.667 -00 03 57.30 19.96   645 – Apache Point-Sloan Digital Sky Survey MPS 79913
2001 10 15.372650 01 28 27.558 -00 07 40.27 19.16 V 645 – Apache Point-Sloan Digital Sky Survey MPS 79913
2001 10 15.376122 01 28 27.339 -00 07 41.14 20.06   645 – Apache Point-Sloan Digital Sky Survey MPS 79913
2001 10 16.26161 01 27 33.07 -00 10 54.1 18.7   704 – Lincoln Laboratory ETS, New Mexico MPS 38144
2001 10 16.27820 01 27 31.98 -00 10 56.6 18.8   704 – Lincoln Laboratory ETS, New Mexico MPS 38144
2001 10 16.29597 01 27 30.91 -00 11 01.5 18.7   704 – Lincoln Laboratory ETS, New Mexico MPS 38144
2001 10 16.31186 01 27 29.84 -00 11 04.5 18.7   704 – Lincoln Laboratory ETS, New Mexico MPS 38144
2001 10 16.34996 01 27 27.46 -00 11 12.4 19.1   644 – Palomar Mountain/NEAT MPS 39356
2001 10 16.37278 01 27 26.00 -00 11 17.4 19.0   644 – Palomar Mountain/NEAT MPS 39356
2001 10 16.39331 01 27 24.70 -00 11 21.5 19.3   644 – Palomar Mountain/NEAT MPS 39356
2001 10 19.27619 01 24 29.17 -00 20 58.6 18.6 R 699 – Lowell Observatory-LONEOS MPS 40489
2001 10 19.29955 01 24 27.58 -00 21 03.8   699 – Lowell Observatory-LONEOS MPS 40489
2001 10 19.32298 01 24 26.15 -00 21 08.4   699 – Lowell Observatory-LONEOS MPS 40489
2001 10 19.34643 01 24 24.65 -00 21 11.9   699 – Lowell Observatory-LONEOS MPS 40489
2001 10 24.31848 01 19 32.82 -00 34 31.5 18.8   644 – Palomar Mountain/NEAT MPS 40489
2001 10 24.33962 01 19 31.61 -00 34 34.5 18.4   644 – Palomar Mountain/NEAT MPS 40489
2001 10 24.36065 01 19 30.34 -00 34 37.5 19.2   644 – Palomar Mountain/NEAT MPS 40489
2001 10 25.338180 01 18 35.311 -00 36 43.37 19.41 V 645 – Apache Point-Sloan Digital Sky Survey MPS 79913
2001 10 25.341652 01 18 35.108 -00 36 43.81 20.32   645 – Apache Point-Sloan Digital Sky Survey MPS 79913
2001 11 18.241080 01 03 03.950 -00 28 33.55 19.96 V 645 – Apache Point-Sloan Digital Sky Survey MPS 259108
2001 11 18.244552 01 03 03.877 -00 28 32.96 20.86   645 – Apache Point-Sloan Digital Sky Survey MPS 259108
2001 12 14.09616 01 04 58.56 +01 37 38.9 20.2   704 – Lincoln Laboratory ETS, New Mexico MPS 43843
2001 12 14.11132 01 04 58.93 +01 37 46.4 20.0   704 – Lincoln Laboratory ETS, New Mexico MPS 43843
2001 12 14.12648 01 04 59.37 +01 37 52.3 20.0   704 – Lincoln Laboratory ETS, New Mexico MPS 43843
2006 01 27.21258 05 20 54.45 +25 22 15.7 20.2 V G96 – Mt. Lemmon Survey MPS 259108
2006 01 27.21867 05 20 54.31 +25 22 16.2 20.0 V G96 – Mt. Lemmon Survey MPS 259108
2006 01 27.22470 05 20 54.20 +25 22 16.5 20.5 V G96 – Mt. Lemmon Survey MPS 259108
2006 01 27.23072 05 20 54.02 +25 22 16.7 20.1 V G96 – Mt. Lemmon Survey MPS 259108
2007 03 11.37402 13 20 44.73 +00 40 41.0 20.2 V 691 – Steward Observatory, Kitt Peak-Spacewatch MPS 259108
2007 03 11.39161 13 20 44.09 +00 40 46.3 20.1 V 691 – Steward Observatory, Kitt Peak-Spacewatch MPS 259108
2007 03 11.40921 13 20 43.43 +00 40 52.2 20.2 V 691 – Steward Observatory, Kitt Peak-Spacewatch MPS 259108
2007 04 16.22722 12 48 56.62 +03 56 36.0 19.4 V 703 – Catalina Sky Survey MPS 259108
2007 04 16.23258 12 48 56.41 +03 56 38.2 19.6 V 703 – Catalina Sky Survey MPS 259108
2007 04 16.23793 12 48 55.98 +03 56 39.4 19.6 V 703 – Catalina Sky Survey MPS 259108
2007 04 16.24327 12 48 55.65 +03 56 40.3 19.5 V 703 – Catalina Sky Survey MPS 259108
2007 05 09.24461 12 31 46.38 +04 32 34.2 20.0 V 703 – Catalina Sky Survey MPS 259108
2007 05 09.25520 12 31 46.12 +04 32 36.7 19.7 V 703 – Catalina Sky Survey MPS 259108
2007 05 09.26444 12 31 45.91 +04 32 35.5 21.1 V 703 – Catalina Sky Survey MPS 259108
2007 05 09.27370 12 31 45.62 +04 32 35.4 20.6 V 703 – Catalina Sky Survey MPS 259108
2007 05 23.17705 12 28 08.50 +03 59 44.3 20.4 V G96 – Mt. Lemmon Survey MPS 259108
2007 05 23.18300 12 28 08.47 +03 59 43.1 20.5 V G96 – Mt. Lemmon Survey MPS 259108
2007 05 23.18905 12 28 08.43 +03 59 41.7 20.5 V G96 – Mt. Lemmon Survey MPS 259108
2007 05 23.19503 12 28 08.40 +03 59 40.7 20.1 V G96 – Mt. Lemmon Survey MPS 259108
2008 09 21.36300 02 30 13.54 +06 22 34.2 19.6 V 691 – Steward Observatory, Kitt Peak-Spacewatch MPS 259108
2008 09 21.38057 02 30 13.04 +06 22 30.9 19.6 V 691 – Steward Observatory, Kitt Peak-Spacewatch MPS 259108
2008 09 21.39814 02 30 12.54 +06 22 27.6 19.5 V 691 – Steward Observatory, Kitt Peak-Spacewatch MPS 259108
2008 09 23.35843 02 29 17.00 +06 16 11.3   704 – Lincoln Laboratory ETS, New Mexico MPS 406901
2008 09 23.37035 02 29 16.59 +06 16 08.1   704 – Lincoln Laboratory ETS, New Mexico MPS 406901
2008 09 23.38226 02 29 16.20 +06 16 06.1   704 – Lincoln Laboratory ETS, New Mexico MPS 406901
2008 09 23.39418 02 29 15.79 +06 16 03.4   704 – Lincoln Laboratory ETS, New Mexico MPS 406901
2008 09 29.30646 02 25 43.12 +05 55 11.2   691 – Steward Observatory, Kitt Peak-Spacewatch MPS 259108
2008 09 29.32402 02 25 42.36 +05 55 07.3   691 – Steward Observatory, Kitt Peak-Spacewatch MPS 259108
2008 09 29.34157 02 25 41.59 +05 55 03.5   691 – Steward Observatory, Kitt Peak-Spacewatch MPS 259108
2008 09 30.29010 02 25 01.51 +05 51 29.9   704 – Lincoln Laboratory ETS, New Mexico MPS 406901
2008 09 30.32692 02 24 59.89 +05 51 20.4   704 – Lincoln Laboratory ETS, New Mexico MPS 406901
2008 09 30.33924 02 24 59.37 +05 51 17.7   704 – Lincoln Laboratory ETS, New Mexico MPS 406901
2008 10 03.31981 02 22 43.40 +05 39 47.5   691 – Steward Observatory, Kitt Peak-Spacewatch MPS 259108
2008 10 03.33740 02 22 42.52 +05 39 43.5   691 – Steward Observatory, Kitt Peak-Spacewatch MPS 259108
2008 10 03.35499 02 22 41.62 +05 39 39.2   691 – Steward Observatory, Kitt Peak-Spacewatch MPS 259108
2008 10 07.34219 02 19 18.68 +05 23 48.9 19.3 V 691 – Steward Observatory, Kitt Peak-Spacewatch MPS 260214
2008 10 07.35981 02 19 17.70 +05 23 44.6 19.5 V 691 – Steward Observatory, Kitt Peak-Spacewatch MPS 260214
2008 10 07.37742 02 19 16.72 +05 23 40.6 19.6 V 691 – Steward Observatory, Kitt Peak-Spacewatch MPS 260214
2008 10 08.31304 02 18 26.11 +05 19 59.7 19.8 R 683 – Goodricke-Pigott Observatory, Tucson MPS 259108
2008 10 08.32644 02 18 25.35 +05 19 51.2 19.7 R 683 – Goodricke-Pigott Observatory, Tucson MPS 259108
2008 10 08.33984 02 18 24.71 +05 19 46.8 20.6 R 683 – Goodricke-Pigott Observatory, Tucson MPS 259108
2008 10 08.38947 02 18 21.78 +05 19 36.9 19.1 V 703 – Catalina Sky Survey MPS 260214
